Weather History for Knoxville, TN

Change the Weather History Date:

Saturday, April 5, 2014

  Actual Average Record
Temperature  
Mean Temperature 11 °C 13 °C  
Max Temperature 15 °C 19 °C 30 °C (1934)
Min Temperature 6 °C 7 °C -4 °C (1881)
Degree Days  
Heating Degree Days 14 10  
Month to date heating degree days 21 52  
Since 1 July heating degree days 3601 3409  
Cooling Degree Days 0 1  
Month to date cooling degree days 5 3  
Year to date cooling degree days 5 8  
Moisture  
Dew Point 2 °C    
Average Humidity 59    
Maximum Humidity 77    
Minimum Humidity 40    
Precipitation  
Precipitation 0.00 mm 3.30 mm 8.10 mm (1983)
Month to date precipitation 0.85 0.65  
Year to date precipitation 11.34 13.57  
Snow  
Snow 0.00 cm 0.00 cm - ()
Month to date snowfall 0.0 0.1  
Since 1 July snowfall 12.4 6.1  
Snow Depth 0.00 cm    
Sea Level Pressure  
Sea Level Pressure 1018 hPa    
Wind  
Wind Speed 13 km/h (North)    
Max Wind Speed 23 km/h    
Max Gust Speed 37 km/h    
Visibility 16 kilometers    
Events      
T = Trace of Precipitation, MM = Missing Value Source: NWS Daily Summary

Daily Weather History Graph

Daily Weather History Graph

Search for Another Location

Airport:

Trip Planner

Search our weather history database for the weather conditions in past years. The results will help you decide how hot, cold, wet, or windy it might be!

Date:

Astronomy

Apr. 05, 2014 Rise Set
Actual Time 7:16 AM EDT 8:01 PM EDT
Civil Twilight 6:50 AM EDT 8:26 PM EDT
Nautical Twilight 6:20 AM EDT 8:57 PM EDT
Astronomical Twilight 5:48 AM EDT 9:29 PM EDT
Moon 11:30 AM EDT (4/5) 1:03 AM EDT (4/5)
Length of Visible Light 13h 36m
Length of Day
12h 44m
Waxing Crescent, 34% of the Moon is Illuminated
Apr 5
Waxing Crescent
Apr 7
First Quarter
Apr 15
Full
Apr 22
Last Quarter
Apr 29
New

Hourly Weather History & Observations

Time (EDT) Temp. Windchill Dew Point Humidity Pressure Visibility Wind Dir Wind Speed Gust Speed Precip Events Conditions
12:53 AM 12.2 °C - 6.7 °C 69% 1014.9 hPa 16.1 km WNW 13.0 km/h / 3.6 m/s - N/A   Partly Cloudy
1:53 AM 11.1 °C - 6.7 °C 74% 1015.6 hPa 16.1 km Variable 5.6 km/h / 1.5 m/s - N/A   Overcast
2:53 AM 9.4 °C - 3.9 °C 69% 1016.6 hPa 16.1 km North 11.1 km/h / 3.1 m/s - N/A   Mostly Cloudy
3:11 AM 9.0 °C - 4.0 °C 71% 1017.2 hPa 16.1 km North 13.0 km/h / 3.6 m/s - N/A   Scattered Clouds
3:53 AM 8.3 °C - 2.8 °C 68% 1017.2 hPa 16.1 km North 16.7 km/h / 4.6 m/s - N/A   Mostly Cloudy
4:53 AM 7.8 °C 5.8 °C 2.2 °C 68% 1017.6 hPa 16.1 km North 11.1 km/h / 3.1 m/s - N/A   Mostly Cloudy
5:53 AM 7.2 °C 4.0 °C 1.1 °C 65% 1018.1 hPa 16.1 km North 18.5 km/h / 5.1 m/s - N/A   Mostly Cloudy
6:53 AM 6.1 °C 3.2 °C 0.6 °C 68% 1018.3 hPa 16.1 km North 14.8 km/h / 4.1 m/s - N/A   Scattered Clouds
7:53 AM 5.6 °C 3.2 °C 0.6 °C 70% 1018.9 hPa 16.1 km North 11.1 km/h / 3.1 m/s - N/A   Scattered Clouds
8:53 AM 7.8 °C 5.0 °C 0.6 °C 61% 1019.5 hPa 16.1 km NNE 16.7 km/h / 4.6 m/s - N/A   Scattered Clouds
9:53 AM 8.3 °C - 0.0 °C 56% 1019.8 hPa 16.1 km North 16.7 km/h / 4.6 m/s - N/A   Scattered Clouds
10:53 AM 9.4 °C - 0.0 °C 52% 1019.9 hPa 16.1 km Variable 11.1 km/h / 3.1 m/s - N/A   Mostly Cloudy
11:53 AM 10.6 °C - 0.6 °C 50% 1019.9 hPa 16.1 km Variable 11.1 km/h / 3.1 m/s - N/A   Mostly Cloudy
12:53 PM 10.6 °C - 0.6 °C 50% 1019.6 hPa 16.1 km Variable 5.6 km/h / 1.5 m/s 27.8 km/h / 7.7 m/s N/A   Scattered Clouds
1:53 PM 12.2 °C - 1.1 °C 47% 1019.2 hPa 16.1 km North 20.4 km/h / 5.7 m/s 25.9 km/h / 7.2 m/s N/A   Scattered Clouds
2:53 PM 13.3 °C - 1.7 °C 45% 1018.7 hPa 16.1 km NNW 16.7 km/h / 4.6 m/s - N/A   Scattered Clouds
3:53 PM 14.4 °C - 0.6 °C 39% 1017.9 hPa 16.1 km NW 18.5 km/h / 5.1 m/s 25.9 km/h / 7.2 m/s N/A   Scattered Clouds
5:53 PM 14.4 °C - 0.6 °C 39% 1017.6 hPa 16.1 km NNE 16.7 km/h / 4.6 m/s - N/A   Scattered Clouds
6:53 PM 13.9 °C - 0.6 °C 40% 1017.4 hPa 16.1 km North 13.0 km/h / 3.6 m/s - N/A   Mostly Cloudy
7:53 PM 12.8 °C - 0.0 °C 42% 1017.5 hPa 16.1 km NNE 13.0 km/h / 3.6 m/s - N/A   Mostly Cloudy
8:53 PM 11.7 °C - 0.0 °C 45% 1017.8 hPa 16.1 km NE 9.3 km/h / 2.6 m/s - N/A   Mostly Cloudy
9:53 PM 11.1 °C - 0.0 °C 47% 1018.4 hPa 16.1 km North 7.4 km/h / 2.1 m/s - N/A   Mostly Cloudy
10:53 PM 10.6 °C - 0.6 °C 50% 1018.6 hPa 16.1 km North 14.8 km/h / 4.1 m/s - N/A   Clear
11:53 PM 10.0 °C - 0.6 °C 52% 1018.0 hPa 16.1 km North 9.3 km/h / 2.6 m/s - N/A   Mostly Cloudy